GOES 5 [-]

Last updated on Fri Dec 29 2023 00:02:21 GMT+0000 (Coordinated Universal Time)

1 12472U 81049A 23362.52524111 .00000082 00000+0 00000+0 0 9993 2 12472 10.9769 322.0342 0002288 271.9173 278.5803 1.00229275113923

Satellite not in orbit

GOES 5 [-]